Location: Ravencliff
(37.6982°N, 81.4812°W)
Time: 19:21:35
(UTC+00:00)

ACS3 Solar Sail - Pass Details

Date: 22 April 2026
Orbit: 894 x 947 km, 97.2° (Epoch: 12 May)

Event Time Altitude Azimuth Distance (km) Brightness Sun altitude
Rises 08:11:10 0° 350° (N) 3,552 5.2 -26.6°
Reaches altitude 10° 08:14:52 10° 326° (NNW) 2,617 4.1 -26.1°
Enters shadow 08:17:07 14° 303° (WNW) 2,366 3.7 -25.7°
